Change the Weather History Date:

Sunday, May 4, 2014

  Actual Average Record
Temperature  
Mean Temperature 52 °F -  
Max Temperature 59 °F 59 °F 77 °F (1998)
Min Temperature 44 °F 36 °F 30 °F (2007)
Degree Days  
Heating Degree Days 14    
Growing Degree Days 2 (Base 50)    
Moisture  
Dew Point 41 °F    
Average Humidity 74    
Maximum Humidity 100    
Minimum Humidity 39    
Precipitation  
Precipitation 0.01 in - - ()
Sea Level Pressure  
Sea Level Pressure 29.77 in    
Wind  
Wind Speed 14 mph (SSW)    
Max Wind Speed 23 mph    
Max Gust Speed 29 mph    
Visibility 10 miles    
Events Rain    
Averages and records for this station are not official NWS values.
T = Trace of Precipitation, MM = Missing Value Source: NWS Daily Summary

Daily Weather History Graph

Daily Weather History Graph

Search for Another Location

Airport or City:

Trip Planner

Search our weather history database for the weather conditions in past years. The results will help you decide how hot, cold, wet, or windy it might be!

Date:

Astronomy

May. 04, 2014 Rise Set
Actual Time 5:28 AM PDT 8:07 PM PDT
Civil Twilight 4:53 AM PDT 8:42 PM PDT
Nautical Twilight 4:09 AM PDT 9:26 PM PDT
Astronomical Twilight 3:18 AM PDT 10:18 PM PDT
Moon 9:55 AM PDT (5/4) 12:17 AM PDT (5/4)
Length of Visible Light 15h 48m
Length of Day
14h 38m
Waxing Crescent, 28% of the Moon is Illuminated
May 4
Waxing Crescent
May 6
First Quarter
May 14
Full
May 21
Last Quarter
May 28
New

Hourly Weather History & Observations

Time (PDT) Temp. Windchill Dew Point Humidity Pressure Visibility Wind Dir Wind Speed Gust Speed Precip Events Conditions
12:21 AM 51.8 °F - 35.6 °F 54% 29.75 in 10.0 mi South 12.7 mph - N/A Rain Light Rain
12:30 AM 51.8 °F - 35.6 °F 54% 29.75 in 10.0 mi South 15.0 mph - N/A   Overcast
12:35 AM 51.8 °F - 37.4 °F 58% 29.75 in 10.0 mi South 16.1 mph - N/A Rain Light Rain
12:45 AM 50.0 °F - 37.4 °F 62% 29.75 in 10.0 mi South 16.1 mph 23.0 mph N/A   Overcast
12:54 AM 50.0 °F - 39.2 °F 66% 29.75 in 10.0 mi South 15.0 mph 23.0 mph N/A Rain Light Rain
12:58 AM 50.4 °F - 38.7 °F 64% 29.76 in 10.0 mi South 12.7 mph 21.9 mph 0.00 in Rain Light Rain
1:10 AM 50.0 °F - 39.2 °F 66% 29.75 in 10.0 mi South 12.7 mph - N/A   Overcast
1:19 AM 50.0 °F - 39.2 °F 66% 29.75 in 10.0 mi South 9.2 mph - N/A Rain Light Rain
1:45 AM 48.2 °F - 39.2 °F 71% 29.75 in 10.0 mi South 10.4 mph - N/A   Overcast
1:55 AM 48.2 °F - 41.0 °F 76% 29.75 in 10.0 mi SSW 12.7 mph - N/A Rain Light Rain
1:58 AM 48.4 °F - 40.5 °F 74% 29.75 in 10.0 mi SSW 13.8 mph - 0.00 in Rain Light Rain
2:12 AM 48.2 °F - 41.0 °F 76% 29.75 in 10.0 mi SSW 16.1 mph - N/A   Mostly Cloudy
2:19 AM 46.4 °F 40.7 °F 41.0 °F 81% 29.75 in 10.0 mi SSW 12.7 mph - N/A Rain Light Rain
2:58 AM 46.4 °F 40.4 °F 42.6 °F 87% 29.75 in 10.0 mi SSW 13.8 mph - 0.00 in Rain Light Rain
3:09 AM 46.4 °F 41.9 °F 42.8 °F 87% 29.75 in 10.0 mi SW 9.2 mph - N/A   Mostly Cloudy
3:44 AM 46.4 °F 41.5 °F 42.8 °F 87% 29.76 in 10.0 mi South 10.4 mph - N/A Rain Light Rain
3:58 AM 46.0 °F 41.0 °F 42.6 °F 88% 29.76 in 10.0 mi South 10.4 mph 20.7 mph 0.00 in Rain Light Rain
4:10 AM 44.6 °F 39.2 °F 42.8 °F 93% 29.76 in 10.0 mi South 10.4 mph - N/A   Overcast
4:25 AM 44.6 °F 39.2 °F 42.8 °F 93% 29.76 in 10.0 mi SSW 10.4 mph - N/A Rain Light Rain
4:37 AM 44.6 °F 40.2 °F 42.8 °F 93% 29.76 in 10.0 mi South 8.1 mph - N/A   Overcast
4:54 AM 44.6 °F 38.8 °F 42.8 °F 93% 29.76 in 10.0 mi South 11.5 mph - N/A   Mostly Cloudy
4:58 AM 45.3 °F 39.3 °F 42.8 °F 91% 29.77 in 10.0 mi South 12.7 mph - 0.00 in   Mostly Cloudy
5:05 AM 46.4 °F 40.1 °F 42.8 °F 87% 29.76 in 10.0 mi SSW 15.0 mph - N/A Rain Light Rain
5:20 AM 44.6 °F 38.1 °F 42.8 °F 93% 29.76 in 10.0 mi South 13.8 mph 20.7 mph N/A   Mostly Cloudy
5:34 AM 44.6 °F 38.8 °F 42.8 °F 93% 29.75 in 10.0 mi South 11.5 mph - N/A   Overcast
5:47 AM 44.6 °F 37.8 °F 44.6 °F 100% 29.75 in 10.0 mi South 15.0 mph 20.7 mph N/A Rain Light Rain
5:52 AM 44.6 °F 38.4 °F 44.6 °F 100% 29.74 in 10.0 mi South 12.7 mph 20.7 mph N/A Rain Light Rain
5:58 AM 45.0 °F 37.9 °F 43.7 °F 95% 29.75 in 10.0 mi South 16.1 mph - 0.01 in Rain Light Rain
5:59 AM 44.6 °F 37.4 °F 42.8 °F 93% 29.74 in 10.0 mi South 16.1 mph - N/A   Overcast
6:04 AM 44.6 °F 37.8 °F 44.6 °F 100% 29.75 in 10.0 mi South 15.0 mph - N/A   Mostly Cloudy
6:11 AM 44.6 °F 38.4 °F 42.8 °F 93% 29.75 in 10.0 mi South 12.7 mph - N/A Rain Light Rain
6:21 AM 44.6 °F 37.8 °F 42.8 °F 93% 29.76 in 10.0 mi South 15.0 mph 23.0 mph N/A   Overcast
6:41 AM 44.6 °F 37.4 °F 42.8 °F 93% 29.77 in 10.0 mi SSW 16.1 mph - N/A   Mostly Cloudy
6:51 AM 44.6 °F 38.4 °F 42.8 °F 93% 29.77 in 10.0 mi South 12.7 mph - N/A   Scattered Clouds
6:58 AM 44.8 °F 38.3 °F 42.4 °F 91% 29.78 in 10.0 mi South 13.8 mph - 0.00 in   Partly Cloudy
7:58 AM 46.6 °F - 41.5 °F 83% 29.79 in 10.0 mi SSW 18.4 mph 27.6 mph N/A   Scattered Clouds
8:58 AM 48.6 °F - 41.0 °F 75% 29.81 in 10.0 mi SSW 23.0 mph 27.6 mph N/A   Scattered Clouds
9:33 AM 50.0 °F - 41.0 °F 71% 29.78 in 10.0 mi SSW 21.9 mph 26.5 mph N/A   Scattered Clouds
9:58 AM 51.3 °F - 41.2 °F 68% 29.82 in 10.0 mi SSW 20.7 mph 28.8 mph N/A   Partly Cloudy
10:18 AM 51.8 °F - 41.0 °F 67% 29.80 in 10.0 mi SSW 19.6 mph 23.0 mph N/A   Mostly Cloudy
10:48 AM 51.8 °F - 39.2 °F 62% 29.80 in 10.0 mi SW 19.6 mph 25.3 mph N/A   Mostly Cloudy
10:58 AM 53.6 °F - 39.2 °F 58% 29.81 in 10.0 mi SSW 16.1 mph - N/A   Mostly Cloudy
11:03 AM 53.6 °F - 39.2 °F 58% 29.80 in 10.0 mi SSW 13.8 mph 23.0 mph N/A   Mostly Cloudy
11:58 AM 54.1 °F - 37.6 °F 54% 29.81 in 10.0 mi SSW 20.7 mph 25.3 mph N/A   Overcast
12:58 PM 54.1 °F - 39.4 °F 57% 29.82 in 10.0 mi SSW 23.0 mph 27.6 mph N/A   Overcast
1:58 PM 57.0 °F - 37.9 °F 49% 29.81 in 10.0 mi South 20.7 mph 25.3 mph N/A   Scattered Clouds
2:58 PM 58.6 °F - 35.8 °F 42% 29.79 in 10.0 mi SSW 16.1 mph 24.2 mph N/A   Clear
3:58 PM 59.5 °F - 35.1 °F 40% 29.78 in 10.0 mi SW 13.8 mph 23.0 mph N/A   Partly Cloudy
4:58 PM 59.0 °F - 33.8 °F 39% 29.78 in 10.0 mi SW 16.1 mph 24.2 mph N/A   Scattered Clouds
5:58 PM 57.6 °F - 35.4 °F 43% 29.78 in 10.0 mi SSW 16.1 mph - N/A   Mostly Cloudy
6:58 PM 54.9 °F - 38.1 °F 53% 29.79 in 10.0 mi South 8.1 mph - N/A   Mostly Cloudy
7:24 PM 53.6 °F - 41.0 °F 62% 29.77 in 10.0 mi South 4.6 mph - N/A Rain Light Rain
7:35 PM 53.6 °F - 41.0 °F 62% 29.77 in 10.0 mi South 10.4 mph - N/A   Mostly Cloudy
7:58 PM 52.3 °F - 40.3 °F 64% 29.79 in 10.0 mi South 4.6 mph - 0.00 in   Mostly Cloudy
8:23 PM 51.8 °F - 42.8 °F 71% 29.78 in 10.0 mi South 6.9 mph - N/A Rain Light Rain
8:32 PM 51.8 °F - 41.0 °F 67% 29.78 in 10.0 mi South 8.1 mph - N/A   Overcast
8:58 PM 50.5 °F - 41.9 °F 72% 29.81 in 10.0 mi South 10.4 mph - 0.00 in   Scattered Clouds
9:58 PM 48.2 °F - 41.5 °F 78% 29.82 in 10.0 mi South 9.2 mph - N/A   Mostly Cloudy
10:58 PM 47.3 °F - 41.4 °F 80% 29.82 in 10.0 mi South 10.4 mph - N/A   Mostly Cloudy
11:58 PM 47.3 °F - 41.5 °F 80% 29.83 in 10.0 mi South 10.4 mph - N/A   Overcast